Hattiesburg, MS

8:35 PM CST on December 16, 2017 (GMT -0600)
Chain Municipal

Weather History for KHBG - May, 2012

Change the Weather History Date:

Sunday, May 6, 2012

  Actual Average Record
Temperature  
Mean Temperature 78 °F 71 °F  
Max Temperature 91 °F 84 °F 94 °F (1952)
Min Temperature 65 °F 59 °F 44 °F (1957)
Degree Days  
Heating Degree Days 0 0  
Month to date heating degree days 0 5  
Since 1 July heating degree days 1398 1983  
Cooling Degree Days 13 7  
Month to date cooling degree days 73 36  
Year to date cooling degree days 391 176  
Growing Degree Days 26 (Base 50)    
Moisture  
Dew Point 65 °F    
Average Humidity 69    
Maximum Humidity 93    
Minimum Humidity 44    
Precipitation  
Precipitation 0.72 in 0.17 in 1.12 in (1960)
Month to date precipitation 1.35 0.96  
Year to date precipitation 26.72 22.52  
Sea Level Pressure  
Sea Level Pressure 29.94 in    
Wind  
Wind Speed 3 mph (ESE)    
Max Wind Speed 21 mph    
Max Gust Speed 26 mph    
Visibility 10 miles    
Events Rain , Thunderstorm    
T = Trace of Precipitation, MM = Missing Value Source: NWS Daily Summary

Daily Weather History Graph

Daily Weather History Graph

Search for Another Location

Airport or City:

Trip Planner

Search our weather history database for the weather conditions in past years. The results will help you decide how hot, cold, wet, or windy it might be!

Date:

Astronomy

May. 06, 2012 Rise Set
Actual Time 6:07 AM CDT 7:40 PM CDT
Civil Twilight 5:41 AM CDT 8:06 PM CDT
Nautical Twilight 5:10 AM CDT 8:37 PM CDT
Astronomical Twilight 4:37 AM CDT 9:10 PM CDT
Moon 8:40 PM CDT (5/6) 6:20 AM CDT (5/6)
Length of Visible Light 14h 24m
Length of Day
13h 32m
Full, 100% of the Moon is Illuminated
May 6
Full
May 12
Last Quarter
May 20
New
May 28
First Quarter
Jun 4
Full

Hourly Weather History & Observations

Time (CDT) Temp. Heat Index Dew Point Humidity Pressure Visibility Wind Dir Wind Speed Gust Speed Precip Events Conditions
12:53 AM 66.9 °F - 64.0 °F 90% 29.96 in 10.0 mi Calm Calm - 0.00 in   Clear
1:53 AM 66.9 °F - 63.0 °F 87% 29.94 in 10.0 mi Calm Calm - 0.00 in   Clear
2:53 AM 66.0 °F - 63.0 °F 90% 29.94 in 10.0 mi Calm Calm - 0.00 in   Clear
3:53 AM 64.9 °F - 62.1 °F 90% 29.94 in 10.0 mi Calm Calm - N/A   Scattered Clouds
4:03 AM 64.4 °F - 62.6 °F 94% 29.95 in 10.0 mi Calm Calm - N/A   Mostly Cloudy
4:42 AM 64.4 °F - 62.6 °F 94% 29.95 in 10.0 mi Calm Calm - N/A   Scattered Clouds
4:50 AM 66.2 °F - 62.6 °F 88% 29.95 in 10.0 mi Calm Calm - N/A   Mostly Cloudy
4:53 AM 66.0 °F - 62.1 °F 87% 29.94 in 10.0 mi Calm Calm - N/A   Mostly Cloudy
5:53 AM 66.0 °F - 63.0 °F 90% 29.95 in 10.0 mi Calm Calm - 0.00 in   Overcast
6:53 AM 66.0 °F - 64.0 °F 93% 29.97 in 10.0 mi Calm Calm - N/A   Overcast
7:53 AM 66.9 °F - 64.9 °F 93% 29.99 in 10.0 mi Calm Calm - 0.01 in   Overcast
8:53 AM 70.0 °F - 66.9 °F 90% 29.99 in 10.0 mi Calm Calm - N/A   Overcast
9:19 AM 73.4 °F - 69.8 °F 88% 29.98 in 10.0 mi Calm Calm - N/A   Partly Cloudy
9:53 AM 78.1 °F - 70.0 °F 76% 29.98 in 10.0 mi Calm Calm - N/A   Clear
10:53 AM 82.0 °F 85.5 °F 69.1 °F 65% 29.99 in 10.0 mi NNW 3.5 mph - N/A   Clear
11:53 AM 84.9 °F 87.1 °F 66.0 °F 53% 29.99 in 10.0 mi NNW 3.5 mph - N/A   Clear
12:53 PM 86.0 °F 89.4 °F 68.0 °F 55% 29.96 in 10.0 mi NNE 4.6 mph - N/A   Mostly Cloudy
1:53 PM 88.0 °F 90.7 °F 66.9 °F 49% 29.94 in 10.0 mi Calm Calm - N/A   Partly Cloudy
2:53 PM 89.1 °F 91.0 °F 64.9 °F 45% 29.90 in 10.0 mi Calm Calm - N/A   Partly Cloudy
3:53 PM 88.0 °F 89.6 °F 64.9 °F 46% 29.89 in 10.0 mi East 6.9 mph - N/A   Mostly Cloudy
4:46 PM 87.8 °F 89.4 °F 64.4 °F 46% 29.89 in 10.0 mi Calm Calm - N/A Thunderstorm Clear
4:53 PM 88.0 °F 90.3 °F 66.0 °F 48% 29.88 in 10.0 mi SSE 6.9 mph - N/A Thunderstorm Partly Cloudy
5:01 PM 87.8 °F 90.4 °F 66.2 °F 49% 29.89 in 10.0 mi SE 8.1 mph - N/A   Partly Cloudy
5:16 PM 86.0 °F 88.2 °F 66.2 °F 51% 29.89 in 10.0 mi SSE 6.9 mph - N/A Thunderstorm Scattered Clouds
5:53 PM 78.1 °F - 63.0 °F 60% 29.93 in 10.0 mi ESE 17.3 mph 26.5 mph N/A Thunderstorm Overcast
6:53 PM 70.0 °F - 66.0 °F 87% 29.97 in 10.0 mi NW 8.1 mph - 0.66 in Rain , Thunderstorm Rain
7:05 PM 71.6 °F - 64.4 °F 78% 29.95 in 10.0 mi South 6.9 mph - 0.04 in Rain Heavy Rain
7:53 PM 70.0 °F - 64.0 °F 81% 29.94 in 10.0 mi SE 9.2 mph - 0.06 in Rain Light Rain
8:53 PM 69.1 °F - 64.9 °F 87% 29.95 in 10.0 mi South 3.5 mph - 0.00 in   Clear
9:53 PM 68.0 °F - 64.0 °F 87% 29.94 in 10.0 mi Calm Calm - N/A   Clear
10:53 PM 66.9 °F - 64.0 °F 90% 29.93 in 10.0 mi WNW 3.5 mph - N/A   Clear
11:53 PM 66.0 °F - 63.0 °F 90% 29.95 in 10.0 mi ESE 3.5 mph - N/A   Clear